Surface/Precipitation History
12/21/2014 10:02  to  12/22/2014 10:02
Change End Date:
Date/Time
(MST)
Sf
Temp Chem Water Layer Surface Precipitation
Sf Sub Frz Factor Pct Depth IcePct Cond Salin Type Intens Accum Rate
12/22/2014 10:01 Ice Warning 23.4F - 31F 95 2% - 96% 3 mhos 568 None None - -
12/22/2014 09:58 Ice Warning 23.2F - 31F 95 2% - 96% 3 mhos 579 None None - -
12/22/2014 09:48 Ice Warning 23.5F - 31F 95 2% - 96% 3 mhos 565 None None - -
12/22/2014 09:38 Ice Warning 23.2F - 31F 95 2% - 96% 3 mhos 569 None None - -
12/22/2014 09:31 Ice Warning 22.6F - 31F 95 2% - 96% 3 mhos 579 None None - -
12/22/2014 09:28 Ice Warning 22.6F - 31F 95 2% - 96% 3 mhos 577 None None - -
12/22/2014 09:18 Ice Warning 22.6F - 31F 95 2% - 96% 3 mhos 568 None None - -
12/22/2014 09:11 Ice Warning 22.8F - 31F 95 2% - 96% 3 mhos 575 None None - -
12/22/2014 09:08 Ice Warning 22.8F - 31F 95 2% - 96% 3 mhos 576 None None - -
12/22/2014 09:01 Ice Warning 22.6F - 31F 95 2% - 96% 3 mhos 562 None None - -
12/22/2014 08:58 Ice Warning 22.6F - 31F 95 2% - 96% 3 mhos 564 None None - -
12/22/2014 08:48 Ice Warning 22.5F - 31F 95 2% - 96% 3 mhos 590 None None - -
12/22/2014 08:41 Ice Warning 22.6F - 31F 95 2% - 96% 3 mhos 583 None None - -
12/22/2014 08:38 Ice Warning 22.6F - 31F 95 2% - 96% 3 mhos 590 None None - -
12/22/2014 08:31 Ice Warning 22.6F - 31F 95 2% - 96% 3 mhos 609 None None - -
Date/Time
(MST)
Sf
Temp Chem Water Layer Surface Precipitation
Sf Sub Frz Factor Pct Depth IcePct Cond Salin Type Intens Accum Rate
12/22/2014 08:28 Ice Warning 22.5F - 31F 95 2% - 96% 3 mhos 640 None None - -
12/22/2014 08:18 Ice Warning 22.3F - 31F 95 3% - 95% 3 mhos 754 None None - -
12/22/2014 08:12 Ice Warning 22.6F - 31F 95 2% - 95% 3 mhos 739 None None - -
12/22/2014 08:08 Ice Warning 22.6F - 31F 95 2% - 95% 3 mhos 750 None None - -
12/22/2014 08:01 Ice Warning 22.5F - 31F 95 3% - 95% 3 mhos 753 None None - -
12/22/2014 07:57 Ice Warning 22.6F - 31F 95 2% - 95% 3 mhos 743 None None - -
12/22/2014 07:47 Ice Warning 22.6F - 31F 95 2% - 95% 3 mhos 712 None None - -
12/22/2014 07:41 Ice Warning 22.8F - 31F 95 2% - 95% 3 mhos 730 None None - -
12/22/2014 07:37 Ice Warning 23.0F - 31F 95 2% - 95% 4 mhos 729 None None - -
12/22/2014 07:31 Ice Warning 23.0F - 31F 95 2% - 96% 3 mhos 621 None None - -
12/22/2014 07:27 Ice Warning 23.0F - 31F 95 2% - 96% 3 mhos 582 None None - -
12/22/2014 07:17 Ice Warning 23.4F - 32F 95 2% - 96% 3 mhos 511 None None - -
12/22/2014 07:07 Ice Warning 23.7F - 32F 95 1% - 97% 2 mhos 371 None None - -
12/22/2014 07:01 Ice Warning 23.5F - 31F 95 2% - 96% 3 mhos 593 None None - -
12/22/2014 06:57 Ice Warning 23.7F - 31F 95 2% - 95% 3 mhos 628 None None - -
Date/Time
(MST)
Sf
Temp Chem Water Layer Surface Precipitation
Sf Sub Frz Factor Pct Depth IcePct Cond Salin Type Intens Accum Rate
12/22/2014 06:47 Ice Warning 24.3F - 31F 95 2% - 95% 3 mhos 621 None None - -
12/22/2014 06:37 Ice Warning 24.6F - 31F 95 2% - 94% 4 mhos 694 None None - -
12/22/2014 06:31 Ice Warning 24.8F - 32F 95 2% - 96% 3 mhos 527 None None - -
12/22/2014 06:27 Ice Warning 24.8F - 32F 95 1% - 97% 2 mhos 394 None None - -
12/22/2014 06:17 Ice Warning 24.4F - 32F 95 1% - 98% 1 mhos 211 None None - -
12/22/2014 06:07 Ice Warning 24.8F - 32F 95 0% - 99% 0 mhos 75 None None - -
12/22/2014 06:02 Ice Warning 24.6F - 32F 95 0% - 100% 0 mhos 59 None None - -
12/22/2014 05:57 Ice Warning 24.4F - 32F 95 0% - 100% 0 mhos 54 None None - -
12/22/2014 05:47 Ice Warning 23.9F - 32F 95 0% - 100% 0 mhos 54 None None - -
12/22/2014 05:37 Ice Warning 23.5F - 32F 95 0% - 100% 0 mhos 62 None None - -
12/22/2014 05:36 Ice Warning 23.5F - 32F 95 0% - 100% 0 mhos 63 None None - -
12/22/2014 05:27 Ice Warning 23.4F - 32F 95 0% - 99% 0 mhos 74 None None - -
12/22/2014 05:17 Ice Warning 23.5F - 32F 95 0% - 99% 0 mhos 75 None None - -
12/22/2014 05:07 Ice Warning 23.9F - 32F 95 0% - 99% 0 mhos 72 None None - -
12/22/2014 05:05 Ice Warning 24.1F - 32F 95 0% - 99% 0 mhos 71 None None - -
Date/Time
(MST)
Sf
Temp Chem Water Layer Surface Precipitation
Sf Sub Frz Factor Pct Depth IcePct Cond Salin Type Intens Accum Rate
12/22/2014 04:57 Ice Warning 24.4F - 32F 95 0% - 99% 0 mhos 77 None None - -
12/22/2014 04:47 Ice Warning 24.8F - 32F 95 0% - 99% 0 mhos 82 None None - -
12/22/2014 04:37 Ice Warning 25.0F - 32F 95 0% - 99% 0 mhos 59 None None - -
12/22/2014 04:31 Ice Warning 25.2F - 32F 95 0% - 100% 0 mhos 42 None None - -
12/22/2014 04:27 Ice Warning 25.0F - 32F 95 0% - 100% 0 mhos 57 None None - -
12/22/2014 04:17 Ice Warning 25.3F - 32F 95 0% - 99% 0 mhos 63 None None - -
12/22/2014 04:07 Ice Warning 26.1F - 32F 95 0% - 99% 1 mhos 97 None None - -
12/22/2014 04:02 Ice Warning 26.1F - 32F 95 0% - 99% 1 mhos 105 None None - -
12/22/2014 03:57 Ice Warning 26.2F - 32F 95 0% - 99% 1 mhos 111 None None - -
12/22/2014 03:47 Ice Warning 26.4F - 32F 95 0% - 99% 1 mhos 103 None None - -
12/22/2014 03:37 Ice Warning 26.6F - 32F 95 0% - 99% 0 mhos 75 None None - -
12/22/2014 03:36 Ice Warning 26.6F - 32F 95 0% - 99% 0 mhos 75 None None - -
12/22/2014 03:27 Ice Warning 27.0F - 32F 95 0% - 99% 0 mhos 46 None None - -
12/22/2014 03:17 Ice Warning 26.8F - 32F 95 0% - 100% 0 mhos 29 None None - -
12/22/2014 03:07 Ice Warning 26.6F - 32F 95 0% - 100% 0 mhos 31 Yes - - -
Date/Time
(MST)
Sf
Temp Chem Water Layer Surface Precipitation
Sf Sub Frz Factor Pct Depth IcePct Cond Salin Type Intens Accum Rate
12/22/2014 03:01 Ice Warning 25.9F - 32F 95 0% - 100% 0 mhos 43 Yes - - -
12/22/2014 02:57 Ice Warning 26.8F - 32F 95 0% - 100% 0 mhos 20 Yes - - -
12/22/2014 02:47 Ice Warning 28.2F - 32F 75 0% - 99% 0 mhos 68 Yes - - -
12/22/2014 02:37 Ice Warning 28.2F - 32F 75 0% - 99% 1 mhos 69 Yes - - -
12/22/2014 02:31 Ice Warning 28.2F - 32F 75 0% - 99% 1 mhos 69 Yes - - -
12/22/2014 02:27 Ice Warning 28.0F - 32F 75 0% - 99% 1 mhos 71 Yes - - -
12/22/2014 02:17 Ice Warning 27.7F - 32F 80 0% - 99% 1 mhos 77 None None - -
12/22/2014 02:08 Ice Warning 27.5F - 32F 75 0% - 99% 1 mhos 79 None None - -
12/22/2014 02:07 Ice Warning 27.7F - 32F 75 0% - 99% 1 mhos 78 None None - -
12/22/2014 01:56 Ice Warning 27.7F - 32F 75 0% - 99% 1 mhos 77 None None - -
12/22/2014 01:46 Ice Warning 27.7F - 32F 75 0% - 99% 1 mhos 78 Yes - - -
12/22/2014 01:36 Ice Warning 27.5F - 32F 85 0% - 99% 1 mhos 86 Yes - - -
12/22/2014 01:32 Ice Warning 27.5F - 32F 90 0% - 99% 1 mhos 88 None None - -
12/22/2014 01:26 Ice Warning 27.3F - 32F 85 0% - 99% 1 mhos 94 Yes - - -
12/22/2014 01:16 Ice Warning 27.1F - 32F 90 0% - 99% 1 mhos 112 None None - -
Date/Time
(MST)
Sf
Temp Chem Water Layer Surface Precipitation
Sf Sub Frz Factor Pct Depth IcePct Cond Salin Type Intens Accum Rate
12/22/2014 01:06 Ice Warning 27.0F - 32F 95 0% - 99% 1 mhos 118 None None - -
12/22/2014 01:01 Ice Warning 27.1F - 32F 90 0% - 99% 1 mhos 122 None None - -
12/22/2014 00:56 Ice Warning 27.1F - 32F 90 0% - 99% 1 mhos 125 None None - -
12/22/2014 00:46 Ice Warning 27.5F - 32F 95 0% - 98% 1 mhos 133 None None - -
12/22/2014 00:36 Ice Warning 27.5F - 32F 95 0% - 98% 1 mhos 139 None None - -
12/22/2014 00:31 Ice Warning 27.7F - 32F 95 0% - 98% 1 mhos 132 None None - -
12/22/2014 00:26 Ice Warning 27.7F - 32F 95 0% - 98% 1 mhos 128 None None - -
12/22/2014 00:16 Ice Warning 27.5F - 32F 95 0% - 98% 1 mhos 132 None None - -
12/22/2014 00:14 Ice Warning 27.5F - 32F 95 0% - 98% 1 mhos 131 None None - -
12/22/2014 00:06 Ice Warning 27.5F - 32F 95 0% - 99% 1 mhos 115 None None - -
12/21/2014 23:58 Ice Warning 27.3F - 32F 95 0% - 99% 1 mhos 106 None None - -
12/21/2014 23:56 Ice Warning 27.5F - 32F 95 0% - 99% 1 mhos 97 None None - -
12/21/2014 23:46 Ice Warning 27.5F - 32F 95 0% - 99% 1 mhos 93 Yes - - -
12/21/2014 23:36 Ice Warning 27.3F - 32F 90 0% - 99% 1 mhos 90 None None - -
12/21/2014 23:31 Ice Warning 27.5F - 32F 90 0% - 99% 1 mhos 86 None None - -
Date/Time
(MST)
Sf
Temp Chem Water Layer Surface Precipitation
Sf Sub Frz Factor Pct Depth IcePct Cond Salin Type Intens Accum Rate
12/21/2014 23:26 Ice Warning 27.5F - 32F 80 0% - 99% 1 mhos 82 None None - -
12/21/2014 23:16 Ice Warning 27.3F - 32F 80 0% - 99% 1 mhos 86 Yes - - -
12/21/2014 23:06 Ice Warning 27.3F - 32F 95 0% - 99% 1 mhos 75 Yes - - -
12/21/2014 23:01 Ice Warning 27.3F - 32F 95 0% - 99% 0 mhos 71 None None - -
12/21/2014 22:56 Ice Warning 27.1F - 32F 90 0% - 99% 0 mhos 73 None None - -
12/21/2014 22:46 Ice Warning 27.0F - 32F 95 0% - 99% 0 mhos 74 Yes - - -
12/21/2014 22:36 Ice Warning 27.0F - 32F 90 0% - 99% 0 mhos 71 None None - -
12/21/2014 22:31 Ice Warning 27.0F - 32F 90 0% - 99% 0 mhos 67 None None - -
12/21/2014 22:26 Ice Warning 27.0F - 32F 85 0% - 99% 0 mhos 64 None None - -
12/21/2014 22:16 Ice Warning 27.0F - 32F 80 0% - 99% 0 mhos 58 None None - -
12/21/2014 22:06 Ice Warning 26.8F - 32F 80 0% - 99% 0 mhos 58 None None - -
12/21/2014 22:01 Ice Warning 26.8F - 32F 80 0% - 99% 0 mhos 57 Yes - - -
12/21/2014 21:56 Ice Warning 26.8F - 32F 80 0% - 99% 0 mhos 61 None None - -
12/21/2014 21:46 Ice Warning 26.8F - 32F 75 0% - 99% 0 mhos 60 None None - -
12/21/2014 21:36 Ice Warning 26.8F - 32F 80 0% - 99% 0 mhos 62 None None - -
Date/Time
(MST)
Sf
Temp Chem Water Layer Surface Precipitation
Sf Sub Frz Factor Pct Depth IcePct Cond Salin Type Intens Accum Rate
12/21/2014 21:31 Ice Warning 26.8F - 32F 85 0% - 99% 0 mhos 66 None None - -
12/21/2014 21:26 Ice Warning 26.6F - 32F 80 0% - 99% 0 mhos 63 None None - -
12/21/2014 21:16 Ice Warning 26.2F - 32F 80 0% - 99% 0 mhos 72 None None - -
12/21/2014 21:06 Ice Warning 25.9F - 32F 75 0% - 99% 0 mhos 74 None None - -
12/21/2014 21:03 Ice Warning 25.9F - 32F 75 0% - 99% 0 mhos 73 None None - -
12/21/2014 20:56 Ice Warning 25.9F - 32F 75 0% - 99% 0 mhos 74 None None - -
12/21/2014 20:46 Ice Warning 25.3F - 32F 70 0% - 99% 0 mhos 72 None None - -
12/21/2014 20:36 Ice Warning 24.8F - 32F 70 0% - 99% 0 mhos 75 None None - -
12/21/2014 20:31 Ice Warning 25.0F - 32F 75 0% - 99% 0 mhos 72 None None - -
12/21/2014 20:26 Ice Warning 24.8F - 32F 70 0% - 99% 0 mhos 69 None None - -
12/21/2014 20:15 Ice Warning 24.8F - 32F 70 0% - 99% 0 mhos 66 None None - -
12/21/2014 20:05 Ice Warning 24.4F - 32F 70 0% - 99% 0 mhos 74 None None - -
12/21/2014 20:02 Ice Warning 24.6F - 32F 70 0% - 99% 0 mhos 73 None None - -
12/21/2014 19:55 Ice Warning 24.8F - 32F 70 0% - 99% 0 mhos 75 None None - -
12/21/2014 19:45 Ice Warning 24.8F - 32F 80 0% - 99% 0 mhos 68 None None - -
Date/Time
(MST)
Sf
Temp Chem Water Layer Surface Precipitation
Sf Sub Frz Factor Pct Depth IcePct Cond Salin Type Intens Accum Rate
12/21/2014 19:35 Ice Warning 25.0F - 32F 70 0% - 99% 0 mhos 65 None None - -
12/21/2014 19:31 Ice Warning 24.8F - 32F 70 0% - 99% 0 mhos 67 None None - -
12/21/2014 19:25 Ice Warning 24.8F - 32F 70 0% - 99% 0 mhos 67 None None - -
12/21/2014 19:15 Ice Warning 25.0F - 32F 70 0% - 99% 0 mhos 65 None None - -
12/21/2014 19:05 Ice Warning 25.0F - 32F 70 0% - 99% 0 mhos 79 None None - -
12/21/2014 19:03 Ice Warning 25.2F - 32F 70 0% - 99% 0 mhos 78 None None - -
12/21/2014 18:55 Ice Warning 25.3F - 32F 75 0% - 99% 0 mhos 80 None None - -
12/21/2014 18:45 Ice Warning 25.7F - 32F 70 0% - 99% 0 mhos 74 None None - -
12/21/2014 18:35 Ice Warning 25.9F - 32F 65 0% - 99% 0 mhos 74 None None - -
12/21/2014 18:34 Ice Warning 25.9F - 32F 65 0% - 99% 0 mhos 75 None None - -
12/21/2014 18:25 Ice Warning 26.1F - 32F 80 0% - 99% 0 mhos 69 None None - -
12/21/2014 18:15 Ice Warning 26.6F - 32F 80 0% - 99% 0 mhos 72 None None - -
12/21/2014 18:05 Ice Warning 27.0F - 32F 70 0% - 99% 0 mhos 70 Yes - - -
12/21/2014 18:04 Ice Warning 27.0F - 32F 70 0% - 99% 0 mhos 68 None None - -
12/21/2014 17:55 Ice Warning 26.4F - 32F 65 0% - 99% 0 mhos 60 None None - -
Date/Time
(MST)
Sf
Temp Chem Water Layer Surface Precipitation
Sf Sub Frz Factor Pct Depth IcePct Cond Salin Type Intens Accum Rate
12/21/2014 17:45 Ice Warning 26.6F - 32F 80 0% - 99% 0 mhos 65 None None - -
12/21/2014 17:35 Ice Warning 26.8F - 32F 95 0% - 99% 0 mhos 62 None None - -
12/21/2014 17:31 Ice Warning 26.4F - 32F 70 0% - 99% 0 mhos 64 None None - -
12/21/2014 17:25 Ice Warning 26.8F - 32F 75 0% - 99% 0 mhos 61 None None - -
12/21/2014 17:15 Ice Warning 27.1F - 32F 70 0% - 99% 0 mhos 60 None None - -
12/21/2014 17:11 Ice Warning 27.1F - 32F 70 0% - 99% 0 mhos 62 None None - -
12/21/2014 17:05 Ice Warning 27.1F - 32F 70 0% - 99% 0 mhos 60 None None - -
12/21/2014 17:01 Ice Warning 27.1F - 32F 70 0% - 99% 0 mhos 62 None None - -
12/21/2014 16:55 Ice Warning 27.1F - 32F 70 0% - 99% 0 mhos 63 None None - -
12/21/2014 16:45 Ice Warning 27.3F - 32F 75 0% - 99% 0 mhos 57 None None - -
12/21/2014 16:41 Ice Warning 27.5F - 32F 75 0% - 99% 0 mhos 59 None None - -
12/21/2014 16:35 Ice Warning 28.2F - 32F 95 0% - 99% 0 mhos 59 None None - -
12/21/2014 16:31 Ice Warning 28.2F - 32F 95 0% - 99% 0 mhos 61 None None - -
12/21/2014 16:25 Ice Warning 28.4F - 32F 95 0% - 99% 0 mhos 57 None None - -
12/21/2014 16:15 Ice Warning 28.8F - 32F 95 0% - 99% 0 mhos 58 None None - -
Date/Time
(MST)
Sf
Temp Chem Water Layer Surface Precipitation
Sf Sub Frz Factor Pct Depth IcePct Cond Salin Type Intens Accum Rate
12/21/2014 16:11 Ice Warning 28.9F - 32F 95 0% - 99% 0 mhos 57 None None - -
12/21/2014 16:05 Ice Warning 29.3F - 32F 95 0% - 99% 0 mhos 49 None None - -
12/21/2014 16:01 Ice Warning 29.5F - 32F 95 0% - 99% 0 mhos 54 None None - -
12/21/2014 15:55 Ice Warning 29.7F - 32F 95 0% - 99% 0 mhos 55 None None - -
12/21/2014 15:45 Ice Warning 30.4F - 32F 95 0% - 98% 1 mhos 70 None None - -
12/21/2014 15:41 Ice Warning 30.4F - 32F 95 0% - 96% 1 mhos 129 None None - -
12/21/2014 15:35 Ice Warning 30.9F - 32F 95 1% - 91% 2 mhos 234 None None - -
12/21/2014 15:31 Ice Warning 31.1F - 32F 95 1% - 89% 2 mhos 233 None None - -
12/21/2014 15:25 Ice Warning 31.3F - 32F 95 1% - 89% 2 mhos 195 None None - -
12/21/2014 15:15 Ice Warning 31.6F - 32F 95 0% - 88% 1 mhos 135 None None - -
12/21/2014 15:11 Wet 32.0F - 32F 95 1% 0.00 in 0% 4 mhos 427 None None - -
12/21/2014 15:04 Wet 33.1F - 32F 95 1% 0.00 in 0% 3 mhos 323 None None - -
12/21/2014 15:01 Wet 33.4F - 32F 95 1% 0.00 in 0% 4 mhos 354 None None - -
12/21/2014 14:54 Wet 34.2F - 32F 95 1% 0.00 in 0% 3 mhos 319 None None - -
12/21/2014 14:44 Wet 35.1F - 31F 95 2% 0.00 in 0% 6 mhos 568 None None - -
Date/Time
(MST)
Sf
Temp Chem Water Layer Surface Precipitation
Sf Sub Frz Factor Pct Depth IcePct Cond Salin Type Intens Accum Rate
12/21/2014 14:41 Wet 35.2F - 32F 95 2% 0.00 in 0% 5 mhos 520 None None - -
12/21/2014 14:34 Wet 35.4F - 32F 95 2% 0.00 in 0% 5 mhos 481 Yes - - -
12/21/2014 14:31 Wet 36.9F - 32F 95 1% 0.00 in 0% 4 mhos 414 Yes - - -
12/21/2014 14:24 Wet 38.8F - 32F 95 1% 0.00 in 0% 3 mhos 261 Yes - - -
12/21/2014 14:14 Wet 39.6F - 32F 95 0% 0.00 in 0% 1 mhos 96 None None - -
12/21/2014 14:11 Wet 38.8F - 32F 95 0% 0.00 in 0% 1 mhos 131 None None - -
12/21/2014 14:04 Wet 38.3F - 32F 95 0% 0.00 in 0% 2 mhos 144 None None - -
12/21/2014 14:00 Wet 37.6F - 32F 95 1% 0.00 in 0% 2 mhos 165 None None - -
12/21/2014 13:54 Wet 38.1F - 32F 95 1% 0.00 in 0% 2 mhos 212 None None - -
12/21/2014 13:44 Wet 40.3F - 32F 95 1% 0.00 in 0% 2 mhos 196 None None - -
12/21/2014 13:41 Wet 40.1F - 32F 95 1% 0.00 in 0% 3 mhos 233 None None - -
12/21/2014 13:34 Wet 39.2F - 32F 95 1% 0.00 in 0% 3 mhos 279 None None - -
12/21/2014 13:31 Wet 39.4F - 32F 80 1% 0.00 in 0% 3 mhos 279 None None - -
12/21/2014 13:24 Wet 37.6F - 32F 95 1% 0.00 in 0% 3 mhos 307 None None - -
12/21/2014 13:14 Wet 36.3F - 32F 95 1% 0.00 in 0% 3 mhos 249 None None - -
Date/Time
(MST)
Sf
Temp Chem Water Layer Surface Precipitation
Sf Sub Frz Factor Pct Depth IcePct Cond Salin Type Intens Accum Rate
12/21/2014 13:11 Wet 36.5F - 32F 95 2% 0.00 in 0% 5 mhos 498 None None - -
12/21/2014 13:04 Wet 39.0F - 32F 95 1% 0.00 in 0% 3 mhos 267 None None - -
12/21/2014 13:01 Wet 38.7F - 32F 95 1% 0.00 in 0% 4 mhos 326 Yes - - -
12/21/2014 12:54 Wet 37.9F - 32F 95 1% 0.00 in 0% 2 mhos 199 None None - -
12/21/2014 12:44 Wet 38.1F - 32F 90 0% 0.00 in 0% 2 mhos 140 None None - -
12/21/2014 12:41 Wet 36.9F - 32F 95 1% 0.00 in 0% 2 mhos 155 None None - -
12/21/2014 12:34 Wet 36.3F - 32F 90 0% 0.00 in 0% 2 mhos 145 None None - -
12/21/2014 12:31 Wet 35.4F - 32F 95 0% 0.00 in 0% 2 mhos 149 None None - -
12/21/2014 12:24 Wet 34.0F - 32F 95 0% 0.00 in 0% 1 mhos 132 None None - -
12/21/2014 12:14 Wet 32.7F - 32F 95 0% 0.00 in 0% 1 mhos 99 None None - -
12/21/2014 12:11 Wet 32.4F - 32F 85 1% 0.00 in 0% 3 mhos 251 None None - -
12/21/2014 12:04 Wet 32.5F - 32F 95 1% 0.00 in 0% 3 mhos 272 None None - -
12/21/2014 12:01 Wet 32.4F - 32F 95 1% 0.00 in 0% 3 mhos 297 None None - -
12/21/2014 11:54 Wet 32.9F - 32F 95 1% 0.00 in 0% 3 mhos 266 None None - -
12/21/2014 11:44 Wet 33.3F - 32F 95 1% 0.00 in 0% 2 mhos 182 None None - -
Date/Time
(MST)
Sf
Temp Chem Water Layer Surface Precipitation
Sf Sub Frz Factor Pct Depth IcePct Cond Salin Type Intens Accum Rate
12/21/2014 11:41 Wet 34.0F - 32F 95 0% 0.00 in 0% 1 mhos 128 None None - -
12/21/2014 11:34 Wet 34.3F - 32F 95 1% 0.00 in 0% 4 mhos 355 None None - -
12/21/2014 11:31 Wet 34.0F - 32F 95 0% 0.00 in 0% 1 mhos 130 None None - -
12/21/2014 11:24 Wet 34.9F - 32F 95 1% 0.00 in 0% 4 mhos 365 None None - -
12/21/2014 11:14 Wet 34.0F - 32F 95 1% 0.00 in 0% 3 mhos 340 None None - -
12/21/2014 11:11 Wet 34.2F - 32F 95 2% 0.00 in 0% 5 mhos 520 None None - -
12/21/2014 11:04 Wet 35.1F - 32F 95 2% 0.00 in 0% 5 mhos 464 None None - -
12/21/2014 11:01 Wet 35.1F - 32F 95 2% 0.00 in 0% 5 mhos 463 None None - -
12/21/2014 10:54 Wet 35.2F - 32F 95 1% 0.00 in 0% 4 mhos 407 None None - -
12/21/2014 10:44 Wet 34.7F - 32F 95 2% 0.00 in 0% 5 mhos 509 None None - -
12/21/2014 10:41 Wet 34.0F - 32F 95 1% 0.00 in 0% 4 mhos 365 None None - -
12/21/2014 10:34 Wet 32.4F - 32F 95 1% 0.00 in 0% 4 mhos 416 Yes - - -
12/21/2014 10:31 Wet 32.7F - 32F 95 2% 0.00 in 0% 5 mhos 492 Yes - - -
12/21/2014 10:24 Wet 33.1F - 32F 95 1% 0.00 in 0% 3 mhos 280 None None - -
12/21/2014 10:14 Wet 32.9F - 32F 95 1% 0.00 in 0% 4 mhos 406 None None - -
Date/Time
(MST)
Sf
Temp Chem Water Layer Surface Precipitation
Sf Sub Frz Factor Pct Depth IcePct Cond Salin Type Intens Accum Rate
12/21/2014 10:11 Wet 32.9F - 32F 95 1% 0.00 in 0% 3 mhos 330 None None - -
12/21/2014 10:04 Wet 33.1F - 32F 95 1% 0.00 in 0% 4 mhos 355 None None - -
Change End Date:
Copyright © 1998-2005 Surface Systems, Inc.
All Rights Reserved
Send comments about the data to:
SCAN Web ® is a registered trademark of Surface Systems, Inc.
SCAN Web Version 5.6